Regional Weather Roundup
Issued by NWS

Home | Current Version | Previous Version | Text Only | Print | Product List | Glossary On
Versions: 1 2 3 4 5 6 7 8 9 10 11 12 13 14 15 16 17 18 19 20 21 22 23 24 25 26 27 28 29 30 31 32 33 34 35 36 37 38 39 40 41 42 43 44 45 46 47 48 49 50
817
ASUS43 KOAX 050002
RWRNE

WEATHER ROUNDUP FOR NEBRASKA
NATIONAL WEATHER SERVICE OMAHA NE
700 PM CDT WED MAY 04 2016

NOTES: SATELLITE DATA IS BEING USED TO AUGMENT CLOUD COVER ABOVE
       12000 FEET.
       "FAIR" INDICATES FEW OR NO CLOUDS BELOW 12,000 FEET WITH NO
       SIGNIFICANT WEATHER AND/OR OBSTRUCTIONS TO VISIBILITY.

  * THESE STATIONS DO NOT REPORT WEATHER SUCH AS RAIN...SNOW OR FOG.

NEZ001>004-019>022-054>056-050100-
NEBRASKA PANHANDLE

CITY           SKY/WX    TMP DP  RH WIND       PRES   REMARKS
SCOTTSBLUFF    SUNNY     75  39  27 E8        30.08F
6HR MIN TEMP:  71; 6HR MAX TEMP:  76;

ALLIANCE       SUNNY     72  38  29 E7        30.09F
6HR MIN TEMP:  69; 6HR MAX TEMP:  74;

CHADRON        SUNNY     76  41  28 S10       30.04F
6HR MIN TEMP:  72; 6HR MAX TEMP:  78;

KIMBALL        SUNNY     72  32  23 CALM      30.13F
SIDNEY         SUNNY     72  40  31 SE7       30.12F
6HR MIN TEMP:  70; 6HR MAX TEMP:  75;

$$

NEZ057>060-069>072-079>082-050100-
SOUTHWEST NEBRASKA

CITY           SKY/WX    TMP DP  RH WIND       PRES   REMARKS
NORTH PLATTE   SUNNY     74  37  26 NE9       30.07S
6HR MIN TEMP:  72; 6HR MAX TEMP:  76;

IMPERIAL       MOSUNNY   76  38  25 NE5       30.09S
6HR MIN TEMP:  72; 6HR MAX TEMP:  78;

LEXINGTON      SUNNY     70  40  33 N7        30.07S
MCCOOK         SUNNY     76  40  27 NE7       30.06F
6HR MIN TEMP:  72; 6HR MAX TEMP:  78;

$$

NEZ005>010-023>029-035>040-094-050100-
NORTH CENTRAL NEBRASKA

CITY           SKY/WX    TMP DP  RH WIND       PRES   REMARKS
VALENTINE      SUNNY     74  35  24 N5        30.07F
6HR MIN TEMP:  70; 6HR MAX TEMP:  75;

AINSWORTH      SUNNY     70  34  26 NW3       30.08S
BROKEN BOW     SUNNY     72  45  37 NE7       30.06F
6HR MIN TEMP:  68; 6HR MAX TEMP:  73;

ORD            SUNNY     69  36  29 N12       30.04F
6HR MIN TEMP:  66; 6HR MAX TEMP:  71;

$$

NEZ041-046>049-061>064-073>077-083>087-050100-
SOUTH CENTRAL NEBRASKA

CITY           SKY/WX    TMP DP  RH WIND       PRES   REMARKS
GRAND ISLAND   SUNNY     69  31  24 N12       30.05F
6HR MIN TEMP:  65; 6HR MAX TEMP:  71;

AURORA         SUNNY     69  28  21 NW10G16   30.04F
HASTINGS       SUNNY     68  32  26 N14       30.05F
6HR MIN TEMP:  65; 6HR MAX TEMP:  71;

KEARNEY *      SUNNY     70  36  28 N12       30.07F
YORK           SUNNY     68  30  24 N9        30.04S
$$

NEZ011>018-030>034-042>045-050100-
NORTHEAST NEBRASKA

CITY           SKY/WX    TMP DP  RH WIND       PRES   REMARKS
NORFOLK        SUNNY     67  32  27 NW14      30.02F
6HR MIN TEMP:  64; 6HR MAX TEMP:  69;

ALBION         SUNNY     66  34  29 N7G16     30.04F
BLAIR          SUNNY     67  38  34 N8        30.00F
COLUMBUS *     SUNNY     70  32  24 NW13      30.03F
FREMONT        SUNNY     67  36  31 NW10      30.01F
TEKAMAH        SUNNY     67  42  40 N12       30.00F
6HR MIN TEMP:  63; 6HR MAX TEMP:  69;

$$

NEZ050>053-065>068-078-088>093-050100-
SOUTHEAST NEBRASKA

CITY           SKY/WX    TMP DP  RH WIND       PRES   REMARKS
LINCOLN        SUNNY     71  32  23 N14       30.02F
6HR MIN TEMP:  67; 6HR MAX TEMP:  73;

OMAHA EPPLEY   SUNNY     68  39  34 N14       29.99F
6HR MIN TEMP:  65; 6HR MAX TEMP:  70;

BEATRICE       SUNNY     68  37  31 N13       30.01F
FALLS CITY     SUNNY     67  34  29 N13G24    29.99S
6HR MIN TEMP:  66; 6HR MAX TEMP:  70;

NEBRASKA CITY  SUNNY     67  34  29 N12       30.00S
$$

NEZ044-045-051>053-067-050100-
OMAHA AREA

CITY           SKY/WX    TMP DP  RH WIND       PRES   REMARKS
OMAHA EPPLEY   SUNNY     68  39  34 N14       29.99F
6HR MIN TEMP:  65; 6HR MAX TEMP:  70;

BLAIR          SUNNY     67  38  34 N8        30.00F
FREMONT        SUNNY     67  36  31 NW10      30.01F
OFFUTT AFB     SUNNY     67  38  34 N8        29.99F
WAHOO          FAIR      69  32  25 N10       30.00F
$$




USA.gov is the U.S. government's official web portal to all federal, state and local government web resources and services.